Погода в Наракурте

Австралия     36°57′27″S   140°44′05″E
темп.,
°C
ветер,
м/с
пор.,
м/с
влажн.,
%
обл.,
%
осадки,
мм/ч
давл.,
гПа
погр.,
м
14 апреля, ср
ср1400:30+15з71376100 1.3 10101108
03:30+14зсз512712 1.4 1010434
06:30+14з6138310 0.1 1011749
09:30+17з8125574 0.1 10131617
12:30+19зюз9114678 0.3 10132027
15:30+18зюз794885 0.3 10141872
18:30+14з59585 0.0 1016498
21:30+15з4860100 0.1 1018981
15 апреля, чт
чт1500:30+15з4859100 0.0 1017814
03:30+14з4966100 0.1 1016613
06:30+13зсз3969100 0.1 1017460
09:30+17з685719 0.2 10181459
12:30+17зюз81057100 0.2 10171307
15:30+18юз7848100 0.4 10171843
18:30+13юз487626 0.1 1020245
21:30+11ююз238919 0.1 102271
16 апреля, пт
пт1600:30+13ю47630 0.0 1022540
03:30+9ю337819 0.0 102348
06:30+8ююв22740 0.0 102410
09:30+14ююз34460 0.0 10261260
12:30+17юз33370 0.0 10241661
15:30+18юз54351 0.0 10231671
18:30+12ююз59550 0.0 1025281
21:30+9ююз34730 0.0 102673
17 апреля, сб
сб1700:30+8юз12795 0.0 102610
03:30+8з1182100 0.0 102510
06:30+8сз2284100 0.0 102614
09:30+14з345912 0.0 1027542
12:30+19зюз4647100 0.0 10251801
15:30+17зюз57678 0.2 1024968
18:30+13юз37751 0.1 1025130
21:30+11зюз22936 0.1 102633
18 апреля, вс
вс1800:30+11з229427 0.0 102528
03:30+12з2593100 0.0 1024135
06:30+12юз2685100 0.0 1025201
09:30+16юз455785 0.0 10251214
12:30+17юз455369 0.0 10241300
15:30+16юз4555100 0.0 10231234
18:30+13ю22685 0.0 102318
21:30+11юз228475 0.0 102315